Regional Weather Roundup
Issued by NWS Charleston, SC

Home | Current Version | Previous Version | Text Only | Print | Product List | Glossary On
Versions: 1 2 3 4 5 6 7 8 9 10 11 12 13 14 15 16 17 18 19 20 21 22 23 24 25 26 27 28 29 30 31 32 33 34 35 36 37 38 39 40 41 42 43 44 45 46 47 48 49 50
000
ASUS42 KCHS 231725
RWRCHS

REGIONAL WEATHER ROUNDUP
NATIONAL WEATHER SERVICE CHARLESTON SC
100 PM EDT SAT AUG 23 2014

NOTE: "FAIR" INDICATES FEW OR NO CLOUDS BELOW 12,000 FEET WITH NO
SIGNIFICANT WEATHER AND/OR OBSTRUCTIONS TO VISIBILITY.

NOT ALL STATIONS ARE QUALITY CONTROLLED BY THE NATIONAL
WEATHER SERVICE. USE DATA WITH CAUTION...ESPECIALLY
DEWPOINT OBSERVATIONS.

SCZ027-030-031-034>040-042>050-231800-
...SOUTH CAROLINA...

CITY           SKY/WX    TMP DP  RH WIND       PRES   REMARKS
N CHARLESTON   MOSUNNY   96  71  44 VRB6      29.90F HX 103
WATERFRONT PRK   N/A     95 N/A N/A NW5G10      N/A
FORT JOHNSON   NOT AVBL
MOUNT PLEASANT FAIR      97  70  41 NW3       29.89F HX 103
JOHNS ISLAND   SUNNY     99  73  44 W8        29.90F HX 109
PINOPOLIS        N/A     93  75  55 N2        29.84F HX 104
MONCKS CORNER    N/A     93  79  62 N6        29.90F HX 110
SUMMERVILLE    FAIR      95  73  49 NW3       29.91F HX 105
BEAUFORT MCAS  SUNNY     96  70  42 N10       29.91F HX 102
BEAUFORT ARPT  FAIR      95  73  49 W9        29.90F HX 105
HILTON HEAD IS SUNNY     93  68  43 W8        29.93F HX  97
GEORGETOWN     NOT AVBL
WALTERBORO     SUNNY     97  63  32 NW8       29.91F HX  98
ORANGEBURG     MOSUNNY   95  71  45 VRB7      29.92F HX 102
BARNWELL       FAIR      97  70  41 NW7       29.92F HX 103
AIKEN          PTSUNNY   93  72  49 NW7       29.98F HX 100
MANNING        FAIR      95  77  55 CALM      29.91F HX 109
KINGSTREE      NOT AVBL
COLUMBIA       PTSUNNY   96  70  42 VRB5      29.93S HX 102
SUMTER         SUNNY     92  74  54 NE10      29.92F HX 101
FLORENCE       MOSUNNY   92  73  53 NE7       29.91F HX 100
MYRTLE BEACH   MOSUNNY   91  79  66 SE9       29.90F HX 107
N MYRTLE BEACH SUNNY     89  78  70 VRB7      29.90F HX 103

$$

GAZ063-065-086>088-099>101-113>116-118-119-134-136>141-150-231800-
...GEORGIA...

CITY           SKY/WX    TMP DP  RH WIND       PRES   REMARKS
SAVANNAH ARPT  MOSUNNY   97  69  40 NW7       29.92F HX 103
HUNTER AAF     SUNNY     96  72  45 W13G20    29.90F HX 105
FORT STEWART   MOSUNNY   97  70  41 NW13G20   29.91F HX 103
STATESBORO     NOT AVBL
SYLVANIA       SUNNY     96  73  47 NW9       29.93F HX 104
CLAXTON        FAIR      97  73  46 NW10      29.93F HX 107
THOMSON        MOSUNNY   94  76  54 CALM      29.99F HX 107
AUGUSTA-BUSH   MOSUNNY   96  70  42 VRB7      29.93F HX 102
AUGUSTA-DANIEL SUNNY     97  67  37 NW9       29.96F HX 101
SWAINSBORO     FAIR      99  70  39 N8        29.95F HX 105
VIDALIA          N/A     97  70  41 N12G17    29.95F HX 103
ALMA           SUNNY     96  72  45 NW6       29.95F HX 104
WAYCROSS       MOSUNNY  100  76  45 N13       29.94F HX 114
JESUP            N/A     99  72  41 N6        29.93F HX 107
BRUNSWICK      MOSUNNY   97  70  41 W8        29.93F HX 103
SAINT SIMONS   SUNNY     96  69  41 NW10      29.93F HX 102

$$

SCZ027-028-034-036>038-045-046-048>050-GAZ119-141-231800-
...LAKE AND SUPPLEMENTAL COASTAL OBSERVATIONS...

STATION/POSITION TIME  TEMP    WIND        PRES    WAVE   SWELL
                       AIR SEA DIR/SP/G            HT/PER HT/PER/DIR
                 (UTC) (F)     (DEG/KT/KT) (MB)    (FT/S) (FT/S/D)
UPR LAKE MARION  NOT AVBL
WINYAH BAY       1700   88     100/  5     1012.0S
LAKE MURRAY      1700   92      30/  1/  5 1013.2S
ACE BASIN NERRS  1700   94     280/  2     1013.0S
FORT PULASKI     1700   92     300/ 12/ 14 1013.2F
SAPELO ISLAND    1700   96     350/  6     1014.0F

$$

ANZ835-935-AMZ111-154-330-350-352-354-374-450-454-472-231800-
...C-MAN AND BUOY OBSERVATIONS...

STATION/POSITION TIME  TEMP    WIND        PRES    WAVE   SWELL
                       AIR SEA DIR/SP/G            HT/PER HT/PER/DIR
                 (UTC) (F)     (DEG/KT/KT) (MB)    (FT/S) (FT/S/D)
FOLLY BEACH CMAN 1700   92     220/  4/  5 1012.8F
BUOY 41004       1700   85 85  260/  6/  6 1012.2F   2/ 4   2/ 4
BUOY 41008       1700   87 87  310/  6/  6 1013.7F   1/10
5E ST. MARYS GA  1700      86                N/A     1/ 9
FRYING PAN BUOY  NOT AVBL
BUOY 41025       1600   78     350/  8/ 10 1014.4R   2/ 8   2/ 40/ 8
CAPE LOOKOUT NC  1700   80      90/  5/  5 1013.9F
BUOY 41002       1559   82 83  300/  6/  8 1014.7F   3/ 5   2/250/ 5
BUOY 41010       1700   84 87  240/  4/  6 1015.4F   2/ 7   2/130/ 7
BUOY 41012       NOT AVBL
ST AUGUSTINE FL  1700   84     120/  7/  7 1015.1F
CAPERS NEARSHORE 1600   89     210/  4/  6   N/A
FRIPP NEARSHORE  NOT AVBL


$$



USA.gov is the U.S. government's official web portal to all federal, state and local government web resources and services.